Location: Peterborough
(44.3091°N, 78.3197°W)
Time: 05:15:08
(UTC-04:00)

A-11 Canister half - Pass Details

Date: 28 March 2023
Orbit: 1513 x 1686 km, 47.2° (Epoch: 04 June)

Event Time Altitude Azimuth Distance (km) Brightness Sun altitude
Rises 19:47:25 0° 194° (SSW) 4,736 11.7 -3.0°
Reaches altitude 10° 19:51:03 10° 182° (S) 3,782 11.0 -3.6°
Maximum altitude 19:58:39 27° 130° (SE) 2,732 9.9 -4.9°
Drops below altitude 10° 20:06:26 10° 78° (ENE) 3,902 10.6 -6.3°
Sets 20:10:14 0° 67° (ENE) 4,913 11.1 -7.0°
